Regional Weather Roundup
Issued by NWS

Home | Current Version | Previous Version | Graphics & Text | Print | Product List | Glossary Off
Versions: 1 2 3 4 5 6 7 8 9 10 11 12 13 14 15 16 17 18 19 20 21 22 23 24 25 26 27 28 29 30 31 32 33 34 35 36 37 38 39 40 41 42 43 44 45 46 47 48 49 50

000
ASUS43 KMPX 261410
RWRMN
WEATHER ROUNDUP FOR MINNESOTA
NATIONAL WEATHER SERVICE TWIN CITIES/CHANHASSEN MN
800 AM CST WED NOV 26 2014


NOTE: "FAIR" INDICATES FEW OR NO CLOUDS BELOW 12,000 FEET WITH NO
SIGNIFICANT WEATHER AND/OR OBSTRUCTIONS TO VISIBILITY. N/A MEANS
CURRENT SKY AND/OR WEATHER CONDITIONS ARE NOT AVAILABLE.

MNZ060>063-068>070-261500-
   Twin Cities Metro

CITY           SKY/WX    TMP DP  RH WIND       PRES   REMARKS
TWIN CITIES    LGT SNOW  22  19  89 N7        30.11R FOG     WCI  13
ST PAUL        LGT SNOW  23  20  88 NE5       30.14R VSB 3/4 WCI  17
CRYSTAL        LGT SNOW  24  18  77 NE6       30.11R WCI  17
BLAINE         LGT SNOW  25  19  80 NE6       30.11R WCI  18
LAKEVILLE      LGT SNOW  19  19 100 NE8       30.08R VSB 1   WCI   9
EDEN PRAIRIE   LGT SNOW  23  20  88 NE7       30.09R FOG     WCI  15
SOUTH ST PAUL  LGT SNOW  24  20  87 NE3       30.11R
LAKE ELMO      LGT SNOW  25  19  80 NE5       30.12R WCI  19
$$
MNZ001>005-007-008-013>017-022>024-027-028-261500-
   Northwest Minnesota

CITY           SKY/WX    TMP DP  RH WIND       PRES   REMARKS
BEMIDJI        LGT SNOW   8   4  84 N7        30.22R WCI  -3
HALLOCK        CLEAR     -6 -11  77 N13G18    30.40R WCI -25
ROSEAU         MOCLDY    -6 -11  77 NW6       30.34R WCI -18
WARROAD        CLOUDY    -8 -11  84 NW6       30.32R WCI -21
THIEF RVR FALL CLOUDY     0  -2  92 N9        30.32R WCI -16
CROOKSTON      CLOUDY     0  -6  78 N15       30.37R WCI -20
FOSSTON        CLOUDY     0  -4  85 N13       30.27R WCI -18
DETROIT LAKES  FLURRIES  10   9  92 N14       30.23R WCI  -5
MOORHEAD       CLOUDY     3   0  85 N22       30.32R FOG     WCI -19
PARK RAPIDS    CLOUDY    13   8  81 N13       30.18R WCI  -2
MAHNOMEN       CLOUDY     4   1  85 N13       30.25R FOG     WCI -12
$$
MNZ006-009>011-018-025>026-261500-
   North Central Minnesota

CITY           SKY/WX    TMP DP  RH WIND       PRES   REMARKS
BAUDETTE       CLEAR     -2  -7  79 N8        30.28R WCI -17
FLAG ISLAND    CLEAR     -9 -13  84 NW10      30.30R WCI -28
INTL FALLS     MOCLDY     4  -1  80 N7        30.23R WCI  -8
WASKISH        PTCLDY     1   0  92 CALM      30.26R
BIG FORK       LGT SNOW  12   9  85 N6        30.20R WCI   3
LONGVILLE      FLURRIES  16  10  79 NW6       30.18R WCI   7
GRAND RAPIDS   CLOUDY    14   9  79 N9        30.16R WCI   2
CRANE LAKE     LGT SNOW  10   9  92 N6        30.21R WCI   1
ORR            LGT SNOW  12   7  79 CALM      30.15R
COOK           LGT SNOW   9   7  92 CALM      30.17R
WALKER         FLURRIES  11   7  83 N6        30.20R WCI   2
$$
MNZ012-019>021-037-261500-
   Northeast Minnesota

CITY           SKY/WX    TMP DP  RH WIND       PRES   REMARKS
DULUTH         LGT SNOW  18  13  80 N8        30.11R WCI   8
ELY            LGT SNOW  12  10  92 NW3       30.14R
HIBBING        CLOUDY    16   9  74 N8        30.16R WCI   5
EVELETH        FLURRIES  18  14  86 N6        30.15R WCI   9
DULUTH HARBOR  CLOUDY    23  18  80 N10       30.18R WCI  12
TWO HARBORS    FLURRIES  21  14  73 CALM      30.12R
SILVER BAY     LGT SNOW  19  12  73 NW3       30.12R
GRAND MARAIS     N/A     20  13  74 N8        30.16R WCI  10
G MARAIS ARPRT LGT SNOW  10   7  85 NW6       30.07R WCI   1
$$
MNZ029>031-032-039>041-046>048-054>057-064-261500-
   West Central Minnesota

CITY           SKY/WX    TMP DP  RH WIND       PRES   REMARKS
FERGUS FALLS   CLOUDY    12   7  79 N13G18    30.25R WCI  -3
WHEATON        LGT SNOW   9   5  85 NW17G25   30.26R WCI -10
MORRIS         MOCLDY    19  16  86 N15       30.17R WCI   5
ALEXANDRIA     MOCLDY    19  14  81 N15       30.15R WCI   5
ELBOW LAKE       N/A     15  12  88 N12       30.18R WCI   1
WADENA         MOCLDY    16  12  86 N7        30.16R WCI   6
GLENWOOD       LGT SNOW  19  16  86 N14       30.14R WCI   6
APPLETON       MOCLDY    21  18  86 N22       30.16R FOG     WCI   5
BENSON         LGT SNOW  19  18  93 NE12      30.15R WCI   7
ORTONVILLE     LGT SNOW  12   9  85 N18G28    30.20R WCI  -5
MADISON        LGT SNOW  21  19  93 N22       30.17R WCI   5
WILLMAR        LGT SNOW  23  19  86 N13       30.13R WCI  11
$$
MNZ033>034-036-042>043-049>051-058-059-261500-
   Central Minnesota

CITY           SKY/WX    TMP DP  RH WIND       PRES   REMARKS
ST CLOUD       CLOUDY    22  17  81 N8        30.13R HAZE    WCI  12
SAUK CENTRE    LGT SNOW  19  16  86 N10       30.14R WCI   7
PAYNESVILLE    CLOUDY    18  17  94 NW9       30.13R FOG     WCI   7
AITKIN         LGT RAIN  19  14  79 CALM      30.14R
PINE RIVER     FLURRIES  16  12  86 N8        30.20R WCI   5
BRAINERD       CLOUDY    17  14  88 N9        30.16R WCI   6
STAPLES        CLOUDY    16  12  86 N7        30.16R WCI   6
LONG PRAIRIE   LGT SNOW  19  16  86 N9        30.15R WCI   9
LITTLE FALLS   LGT SNOW  21  16  79 N5        30.16R WCI  15
LITCHFIELD     LGT SNOW  23  21  93 N9        30.11R WCI  13
BUFFALO        LGT SNOW  23  19  85 N6        30.13R WCI  16
MAPLE LAKE     LGT SNOW  24  22  92 N6        30.13R WCI  16
$$
MNZ037-044-045-052-053-261500-
   East Central Minnesota

CITY           SKY/WX    TMP DP  RH WIND       PRES   REMARKS
PRINCETON      LGT SNOW  23  19  86 N6        30.13R WCI  16
MORA           PTCLDY    21  16  79 N3        30.16R
CAMBRIDGE      MOCLDY    25  16  68 CALM      30.12R
RUSH CITY      CLOUDY    22  18  85 N6        30.14R WCI  14
MOOSE LAKE     CLOUDY    19  14  79 NE3       30.13R
HINCKLEY       CLOUDY    21  19  93 N7        30.14R WCI  13
CLOQUET        FLURRIES  18  14  86 NW5       30.13R WCI  11
MCGREGOR       CLOUDY    19  16  86 N5        30.16R WCI  13
$$
MNZ071>073-080-081-089-090-097-098-261500-
   Southwest Minnesota

CITY           SKY/WX    TMP DP  RH WIND       PRES   REMARKS
MONTEVIDEO     LGT SNOW  21  19  93 NE15      30.15R WCI   8
GRANITE FALLS  LGT SNOW  22  20  91 N14G21    30.14R VSB 1   WCI   9
CANBY          LGT SNOW  19  17  92 NW20G26   30.17R WCI   2
MARSHALL       CLOUDY    21  16  79 N18       30.11R WCI   6
REDWOOD FALLS  LGT SNOW  24  21  88 N10G17    30.10R VSB 1   WCI  14
OLIVIA         LGT SNOW  23  21  93 N14       30.10R WCI  11
PIPESTONE      CLOUDY    21  19  93 NE16G28   30.05R FOG     WCI   7
WINDOM         LGT SNOW  23  21  93 N14       30.02R WCI  11
WORTHINGTON    CLOUDY    23  19  86 N20       30.01R WCI   8
JACKSON        LGT SNOW  27  23  86 N14       29.99R WCI  15
TRACY          LGT SNOW  23  22  94 N15       30.07R WCI  10
SLAYTON        CLOUDY    22  21  97 N22       30.04R FOG     WCI   6
$$
MNZ065>067-074>077-082>085-091>093-261500-
   South Central Minnesota

CITY           SKY/WX    TMP DP  RH WIND       PRES   REMARKS
MANKATO        CLOUDY    23  19  86 NE16      30.04R VSB 1   WCI  10
NEW ULM        LGT SNOW  23  21  93 NE12      30.05R VSB 3/4 WCI  12
ST JAMES       LGT SNOW  27  25  93 N12       30.04R WCI  16
FAIRMONT       CLOUDY    25  21  86 N10       30.00R WCI  15
GLENCOE        LGT SNOW  24  23  96 N7        30.09R WCI  16
FARIBAULT      LGT SNOW  21  19  93 NE7       30.06R VSB 3/4 WCI  13
OWATONNA       LGT SNOW  23  19  86 NE10      30.02R VSB 3/4 WCI  12
WASECA         LGT SNOW  23  19  86 NE9       30.04R WCI  13
ALBERT LEA     LGT SNOW  25  25 100 E10       29.99R WCI  15
$$
MNZ078>079-086>088-094>096-261500-
   Southeast Minnesota

CITY           SKY/WX    TMP DP  RH WIND       PRES   REMARKS
ROCHESTER      LGT SNOW  21  17  84 E12       30.04R FOG     WCI   9
RED WING       FLURRIES  23  16  74 E7        30.10R WCI  15
STANTON        LGT SNOW  23  20  87 NE9       30.07R WCI  13
DODGE CENTER   LGT SNOW  23  19  86 E14       30.02R WCI  11
WINONA         MOCLDY    21  18  86 SE7       30.12R WCI  13
AUSTIN         FLURRIES  25  21  86 E10       30.00R WCI  15
PRESTON        CLOUDY    20  17  88 E10       30.04R WCI   9
$$
ABBREVIATIONS USED IN REMARKS
   TC - TEMPERATURES IN CELSIUS
  WCI - WIND CHILL INDEX
   HX - HEAT INDEX
  VSB - VISIBILITY
$$



USA.gov is the U.S. government's official web portal to all federal, state and local government web resources and services.